CW3660 Weather Reports


Display with metric or nautical units.
time (UTC)temp
F
wind
direction
speed
MPH
gust
MPH
rain 1hr
in
rain 24hr
in
rain mn
in
humidity
%
barometer
mb
20260507070016 52 0.0 3.0 0.00 0.14 0.01 88 1006.3
20260507065016 52 315 1.0 3.0 0.00 0.14 0.01 87 1005.9
20260507064016 52 0.0 2.0 0.00 0.14 0.01 87 1006.1
20260507063016 52 338 1.0 4.0 0.00 0.14 0.01 87 1006.3
20260507062016 52 338 2.0 5.0 0.00 0.14 0.01 87 1006.3
20260507061016 52 338 2.0 4.0 0.00 0.14 0.01 86 1006.1
20260507060036 52 338 2.0 6.0 0.00 0.14 0.01 86 1006.1
20260507055016 52 315 3.0 7.0 0.00 0.14 0.01 86 1006.2
20260507054016 53 315 2.0 7.0 0.00 0.14 0.01 87 1006.7
20260507053016 53 315 2.0 9.0 0.00 0.14 0.01 89 1006.6
20260507052016 54 315 3.0 7.0 0.00 0.14 0.01 91 1006.5
20260507051016 54 315 2.0 4.0 0.01 0.14 0.01 91 1006.7
20260507050016 54 315 1.0 4.0 0.01 0.14 0.01 91 1006.6
20260507045015 55 315 1.0 5.0 0.03 0.14 0.01 91 1006.5
20260507044016 55 315 1.0 4.0 0.03 0.14 0.01 91 1006.6
20260507043016 55 315 1.0 7.0 0.03 0.14 0.01 90 1006.4
20260507042016 55 315 2.0 6.0 0.03 0.14 0.01 90 1006.3
20260507041016 56 315 4.0 11.0 0.02 0.13 0.00 89 1006.3
20260507040015 57 315 3.0 10.0 0.02 0.13 0.13 89 1006.5
20260507035016 58 293 3.0 8.0 0.00 0.11 0.11 91 1006.3
20260507034016 58 293 2.0 7.0 0.00 0.11 0.11 93 1005.9
20260507033016 59 248 2.0 6.0 0.00 0.11 0.11 93 1005.9
20260507032016 59 293 2.0 5.0 0.00 0.11 0.11 94 1005.7
20260507031036 59 225 2.0 7.0 0.00 0.11 0.11 95 1005.4
20260507030116 59 248 2.0 5.0 0.00 0.11 0.11 95 1005.2
20260507025036 59 225 1.0 6.0 0.00 0.11 0.11 94 1005.3
20260507024016 59 225 2.0 6.0 0.00 0.11 0.11 94 1005.4
20260507023016 59 225 2.0 6.0 0.00 0.11 0.11 94 1005.3
20260507022016 59 180 2.0 7.0 0.00 0.11 0.11 94 1005.3
20260507021036 59 180 2.0 8.0 0.00 0.11 0.11 94 1005.1
20260507020016 59 203 2.0 6.0 0.00 0.11 0.11 94 1005.2
20260507015016 59 180 2.0 8.0 0.00 0.11 0.11 94 1005.2
20260507014036 59 203 2.0 7.0 0.00 0.11 0.11 94 1005.3
20260507013016 59 203 2.0 11.0 0.00 0.11 0.11 94 1005.2
20260507012016 59 180 2.0 7.0 0.00 0.11 0.11 94 1005.2
20260507011016 59 180 2.0 8.0 0.00 0.11 0.11 94 1005.3
20260507010016 59 225 3.0 10.0 0.00 0.11 0.11 94 1005.4
20260507005036 59 203 3.0 10.0 0.00 0.11 0.11 94 1005.3
20260507004056 59 180 3.0 7.0 0.00 0.11 0.11 94 1005.2
20260507003056 59 203 2.0 6.0 0.00 0.11 0.11 94 1005.2
20260507002016 59 203 3.0 9.0 0.00 0.11 0.11 94 1005.2
20260507001016 59 180 4.0 12.0 0.01 0.11 0.11 94 1005.2
20260507000016 59 180 4.0 10.0 0.03 0.11 0.11 94 1005.1
20260506235016 59 180 3.0 8.0 0.03 0.11 0.11 94 1004.9
20260506234036 59 203 3.0 6.0 0.04 0.11 0.11 94 1005.0
20260506233016 59 180 4.0 9.0 0.04 0.11 0.11 94 1004.9
20260506232015 59 180 3.0 11.0 0.04 0.11 0.11 93 1004.9
20260506231017 59 158 4.0 9.0 0.04 0.10 0.10 93 1004.9
20260506230016 60 180 3.0 7.0 0.02 0.08 0.08 93 1005.0
20260506225016 60 180 3.0 8.0 0.02 0.08 0.08 93 1005.1
20260506224015 60 180 3.0 6.0 0.01 0.07 0.07 93 1005.1
20260506223035 60 203 3.0 10.0 0.01 0.07 0.07 93 1005.1
20260506222015 60 180 5.0 11.0 0.01 0.07 0.07 92 1005.1
20260506221016 60 203 4.0 11.0 0.00 0.06 0.06 92 1005.3
20260506220017 60 180 4.0 12.0 0.00 0.06 0.06 92 1005.4
20260506215015 60 225 4.0 14.0 0.01 0.06 0.06 92 1005.4
20260506214015 60 203 4.0 10.0 0.01 0.06 0.06 92 1005.4
20260506213036 60 203 5.0 16.0 0.02 0.06 0.06 91 1005.5
20260506212015 60 180 4.0 13.0 0.02 0.06 0.06 91 1005.8
20260506211015 60 180 3.0 9.0 0.02 0.06 0.06 91 1005.9
20260506210015 60 248 3.0 10.0 0.03 0.06 0.06 91 1005.9
20260506205015 60 203 5.0 16.0 0.02 0.05 0.05 90 1006.0
20260506204015 60 225 5.0 15.0 0.02 0.05 0.05 90 1006.1
20260506203016 61 203 4.0 14.0 0.02 0.04 0.04 89 1006.1
20260506202015 61 225 5.0 14.0 0.02 0.04 0.04 89 1006.1
20260506201015 62 180 5.0 13.0 0.03 0.04 0.04 88 1005.9
20260506200015 62 180 4.0 12.0 0.02 0.03 0.03 88 1006.1
20260506195015 63 203 3.0 11.0 0.03 0.03 0.03 87 1006.2
20260506194017 63 180 4.0 9.0 0.03 0.03 0.03 86 1006.1
20260506193018 64 180 2.0 6.0 0.02 0.02 0.02 85 1006.2
20260506192037 64 203 3.0 12.0 0.02 0.02 0.02 83 1006.1
20260506191017 65 248 4.0 10.0 0.01 0.01 0.01 81 1006.1
20260506190018 66 180 4.0 15.0 0.01 0.01 0.01 77 1006.2
20260506185018 67 248 5.0 14.0 0.00 0.00 0.00 72 1006.3
20260506184017 68 225 6.0 18.0 0.00 0.00 0.00 69 1006.4
20260506183017 69 225 6.0 13.0 0.00 0.00 0.00 67 1006.4
20260506182758 70 225 5.0 20.0 0.00 0.00 0.00 63 1006.3
20260506163037 72 225 5.0 15.0 0.00 0.00 0.00 59 1007.2
20260506162037 72 180 4.0 16.0 0.00 0.00 0.00 59 1007.2
20260506161017 71 203 5.0 14.0 0.00 0.00 0.00 59 1007.5
20260506160212 71 225 4.0 11.0 0.00 0.00 0.00 59 1007.6
20260506155037 71 225 4.0 12.0 0.00 0.00 0.00 60 1007.8
20260506154017 71 180 5.0 12.0 0.00 0.00 0.00 60 1007.9
20260506153017 71 203 4.0 15.0 0.00 0.00 0.00 61 1008.1
20260506152017 71 225 3.0 11.0 0.00 0.00 0.00 62 1008.2
20260506151037 71 203 4.0 10.0 0.00 0.00 0.00 63 1008.4
20260506150017 70 203 5.0 12.0 0.00 0.00 0.00 63 1008.3
20260506145017 70 248 4.0 10.0 0.00 0.00 0.00 63 1008.7
20260506144016 70 225 5.0 14.0 0.00 0.00 0.00 64 1008.6
20260506143037 70 203 6.0 16.0 0.00 0.00 0.00 64 1008.4
20260506142037 70 180 6.0 16.0 0.00 0.00 0.00 64 1008.4
20260506141017 69 203 6.0 19.0 0.00 0.00 0.00 66 1008.2
20260506140017 69 225 5.0 15.0 0.00 0.00 0.00 67 1008.4
20260506135057 67 225 4.0 10.0 0.00 0.00 0.00 70 1008.4
20260506134017 67 203 6.0 14.0 0.00 0.00 0.00 70 1008.6
20260506133057 66 203 5.0 13.0 0.00 0.00 0.00 71 1008.9
20260506132037 66 248 4.0 14.0 0.00 0.00 0.00 72 1009.0
20260506131017 66 203 5.0 13.0 0.00 0.00 0.00 73 1009.1
20260506130037 65 180 4.0 12.0 0.00 0.00 0.00 74 1008.9
20260506125016 65 180 3.0 8.0 0.00 0.00 0.00 74 1009.0
20260506124016 65 180 5.0 11.0 0.00 0.00 0.00 75 1008.9
20260506123447 64 203 5.0 16.0 0.00 0.00 0.00 76 1009.0
20260506121037 64 180 5.0 12.0 0.00 0.00 0.00 76 1009.1
20260506120017 63 180 5.0 13.0 0.00 0.00 0.00 79 1008.9
20260506115016 62 203 5.0 12.0 0.00 0.00 0.00 79 1009.2
20260506114016 62 203 5.0 16.0 0.00 0.00 0.00 79 1009.2
20260506113016 62 225 5.0 12.0 0.00 0.00 0.00 79 1009.3
20260506112016 62 203 5.0 14.0 0.00 0.00 0.00 79 1009.5
20260506111016 62 203 5.0 16.0 0.00 0.00 0.00 79 1009.2
20260506110037 61 180 5.0 17.0 0.00 0.00 0.00 80 1009.2
20260506105016 61 203 5.0 13.0 0.00 0.00 0.00 80 1009.3
20260506104016 60 180 5.0 14.0 0.00 0.00 0.00 81 1009.4
20260506103016 60 180 4.0 11.0 0.00 0.00 0.00 81 1009.3
20260506102016 60 203 5.0 15.0 0.00 0.00 0.00 80 1009.3
20260506101116 60 203 4.0 11.0 0.00 0.00 0.00 80 1009.2
20260506100016 60 180 5.0 13.0 0.00 0.00 0.00 80 1009.1
20260506095016 60 180 4.0 15.0 0.00 0.00 0.00 80 1009.3
20260506094016 60 203 4.0 9.0 0.00 0.00 0.00 80 1009.0
20260506093016 60 203 3.0 8.0 0.00 0.00 0.00 79 1009.2
20260506092016 60 203 4.0 10.0 0.00 0.00 0.00 79 1009.2
20260506091036 60 180 3.0 12.0 0.00 0.00 0.00 79 1009.1
20260506090016 60 180 3.0 10.0 0.00 0.00 0.00 78 1009.1
20260506085016 61 203 3.0 8.0 0.00 0.00 0.00 78 1009.2
20260506084016 61 180 3.0 8.0 0.00 0.00 0.00 78 1009.3
20260506083016 61 203 3.0 7.0 0.00 0.00 0.00 77 1009.3
20260506082016 61 203 3.0 7.0 0.00 0.00 0.00 76 1009.3
20260506081016 61 180 3.0 7.0 0.00 0.00 0.00 76 1009.3
20260506073016 62 203 3.0 9.0 0.00 0.00 0.00 73 1009.1
20260506072016 63 225 3.0 8.0 0.00 0.00 0.00 72 1009.1
20260506071016 63 225 3.0 8.0 0.00 0.00 0.00 72 1009.0